RH
81 82 86 90 96 98 70 87 87 70 77 99 100 100 98 85 84 73 59 61 64 69 69 65 65 67 61 54 57 62 56 80 95 72 62 59 64 71 77 83 75 98 87 79
82 83 84 87 95 99 90 94 94 74 88 97 98 82 88 87 85 70 55 58 52 57 66 68 64 66 49 58 57 63 56 79 92 83 69 68 76 73 71 77 83 96 92 73
82 83 84 85 90 81 86 91 92 91 91 92 92 92 87 73 61 59 56 59 54 56 59 57 73 65 65 58 54 59 58 75 76 84 70 80 91 81 77 79 99 87 85 74
81 83 83 84 87 73 78 92 96 93 98 87 86 80 81 81 88 64 57 54 54 56 70 68 74 66 61 60 64 63 62 83 90 79 74 79 77 76 84 87 76 87 66 69
84 83 82 82 86 73 82 84 98 89 94 93 80 78 76 76 75 72 67 61 63 59 72 71 79 69 65 60 58 68 67 94 94 94 77 87 95 82 81 80 78 78 72 72
85 83 82 80 83 75 94 93 92 96 87 86 79 72 65 66 64 68 74 66 71 82 82 75 65 54 58 56 67 76 73 96 93 98 78 90 91 86 78 71 70 63 78 63
88 86 82 79 80 81 92 95 99 95 93 91 79 75 65 66 66 73 77 76 70 76 66 63 65 72 70 63 62 67 83 84 88 100 88 95 62 59 61 71 70 68 64 66
87 86 85 78 78 80 72 93 97 98 90 95 80 88 74 67 68 76 76 78 76 74 69 84 80 82 74 75 66 71 65 76 98 96 98 74 69 57 72 83 68 65 72 64
87 86 82 81 77 80 68 95 89 97 100 93 93 98 77 76 76 74 83 80 75 73 88 87 85 95 75 95 95 73 77 78 85 99 99 94 76 57 63 65 82 62 71 65
82 87 87 76 80 74 76 75 73 96 99 77 88 97 85 69 76 82 82 86 81 73 90 91 93 84 72 95 94 100 100 99 94 88 98 85 57 52 66 79 67 60 60 68
89 84 83 83 83 70 73 72 80 84 100 90 84 82 92 94 78 88 82 77 84 92 88 90 89 88 82 84 78 88 89 97 99 96 98 94 55 75 75 64 65 63 68 66
93 86 79 85 84 84 75 79 67 76 93 85 88 78 60 69 83 94 86 77 85 86 92 92 94 89 90 84 88 77 94 85 86 85 78 55 57 59 56 65 70 66 70 70
99 82 77 80 83 77 83 87 83 75 95 88 96 81 58 70 66 68 94 87 74 83 84 86 90 95 91 91 92 79 70 63 73 78 63 66 59 63 57 60 62 65 68 73
99 86 78 83 78 84 86 87 84 83 89 98 88 82 86 78 76 76 81 73 80 84 85 88 91 90 83 89 83 89 79 71 75 80 65 60 58 60 57 60 61 64 69 76
99 88 85 86 90 90 88 87 85 84 84 98 93 81 72 84 83 81 80 79 86 89 95 92 93 88 89 91 93 96 81 75 81 82 61 71 69 60 58 63 61 65 70 72
99 88 88 86 90 94 90 92 82 87 87 98 98 94 99 92 83 83 87 88 91 92 89 89 91 82 83 98 96 65 75 70 70 79 66 64 65 71 61 60 62 66 71 71
98 89 92 91 88 98 85 83 97 93 91 99 98 100 97 92 90 93 94 92 95 92 96 97 91 89 86 94 90 78 75 65 65 70 74 78 69 70 66 61 66 66 67 69
95 93 86 86 67 88 93 96 96 100 98 100 99 100 97 92 99 99 95 99 99 98 94 96 93 89 85 98 77 66 63 70 67 73 75 77 73 70 69 69 66 66 68 64
86 86 86 82 87 71 80 91 87 98 100 100 100 100 100 92 95 98 97 94 99 92 99 96 94 93 97 87 80 74 74 88 89 87 84 80 80 72 70 69 70 69 69 65
60 89 94 82 82 87 99 98 100 99 98 100 100 94 100 92 95 100 97 98 97 100 96 97 99 95 84 75 74 74 87 90 92 98 94 89 91 86 73 74 69 67 68 68
75 86 89 85 90 99 98 100 100 100 100 98 95 95 94 93 94 98 95 100 100 100 98 100 100 99 95 78 80 80 80 79 79 79 79 84 92 91 87 81 73 68 66 65
86 95 90 93 100 99 100 99 98 100 98 97 98 90 91 95 92 96 97 100 99 98 91 100 98 94 86 87 82 79 82 78 78 84 82 90 92 88 90 82 72 65 61 57
91 100 100 100 98 99 97 96 96 99 100 100 100 99 96 89 92 98 97 100 98 88 98 94 97 92 84 84 81 80 77 82 78 84 85 84 82 71 73 71 61 60 63 63
97 97 99 98 97 92 96 96 99 99 100 100 99 100 98 94 98 98 96 85 90 100 100 94 95 92 90 85 82 83 86 87 85 82 80 80 86 86 71 64 62 60 65 72
96 96 99 99 95 99 100 100 100 99 99 100 100 100 94 100 100 98 98 100 98 90 88 98 98 90 90 88 86 89 90 89 88 86 82 77 75 90 92 91 90 77 77 83
94 96 100 91 98 98 99 99 100 99 98 99 100 100 100 99 98 99 98 93 88 88 97 98 95 89 89 90 91 91 92 90 88 88 87 82 78 74 86 95 97 94 90 93
97 99 93 97 99 99 100 91 89 89 100 100 100 99 95 99 99 99 92 94 94 96 95 92 93 86 88 92 90 90 94 95 92 91 92 91 79 68 76 92 95 96 97 94
Wind_Speed
27 27 29 31 32 28 10 2 3 3 8 1 1 2 2 2 4 3 5 5 6 4 4 2 3 4 3 4 5 4 2 4 3 4 1 1 3 5 4 4 3 1 2 7
26 28 29 30 30 25 7 2 2 2 2 3 3 2 2 2 2 3 3 3 1 2 4 4 3 3 1 6 5 6 4 1 3 2 4 3 2 4 4 4 3 5 4 5
24 27 29 30 29 18 4 2 3 4 3 0 2 4 4 3 4 4 4 4 4 4 3 4 4 2 4 5 5 6 6 3 4 5 3 3 2 4 6 6 3 3 6 9
23 25 27 29 30 13 3 3 2 1 4 4 4 3 2 4 6 4 5 4 5 6 3 2 3 2 2 4 5 3 4 2 2 4 5 3 4 4 7 7 8 6 2 6
20 23 25 28 30 11 6 2 1 2 3 4 5 4 5 4 5 5 5 5 5 3 3 2 6 5 2 2 2 3 3 2 2 4 4 5 5 8 9 9 9 11 18 22
16 19 21 24 27 20 7 5 3 1 4 4 2 2 1 1 2 3 4 1 4 6 4 2 1 2 5 5 6 3 4 5 2 4 4 5 5 8 10 5 6 10 12 13
14 16 17 19 21 21 5 5 3 2 3 2 2 5 2 1 0 4 2 3 3 2 1 2 4 8 7 6 3 4 5 4 2 2 4 2 6 1 6 9 7 14 10 9
13 14 15 15 16 17 13 7 3 2 3 2 4 5 3 1 3 2 3 2 2 1 3 3 3 2 2 2 3 3 3 3 2 0 2 6 2 3 5 6 7 7 11 11
11 12 13 13 13 14 14 6 7 2 3 4 3 2 1 1 0 3 2 2 1 4 2 2 3 3 3 3 1 3 4 4 2 2 2 3 3 2 3 4 4 2 5 6
11 11 11 13 12 11 13 2 9 2 2 3 2 4 3 1 1 2 1 3 2 3 2 2 2 3 2 5 5 5 3 2 6 6 3 5 9 4 3 1 3 2 2 6
10 11 12 11 12 9 10 8 2 4 2 7 4 3 3 3 2 3 2 3 2 2 2 3 3 2 3 2 3 5 8 6 3 4 4 6 4 3 3 3 3 3 4 4
10 11 13 12 12 9 7 4 6 6 4 5 8 20 28 17 7 1 1 2 3 4 3 1 2 2 0 3 2 1 3 6 4 7 5 3 4 4 2 3 3 4 4 2
12 11 13 13 12 12 11 10 8 6 3 5 4 8 15 14 26 20 2 2 3 2 2 2 1 1 3 3 4 3 3 4 3 1 3 5 7 5 3 3 3 4 4 3
16 11 13 14 15 16 13 12 10 4 3 4 6 9 10 11 16 18 17 4 4 4 2 1 1 2 3 2 2 2 4 2 3 5 6 7 3 4 2 1 2 3 1 3
14 14 14 16 16 16 16 14 16 12 5 3 6 22 18 13 18 16 12 7 4 2 1 2 3 2 2 1 1 3 3 4 3 4 4 4 7 5 3 3 3 4 3 1
14 15 16 17 16 11 1 2 5 18 16 2 3 7 4 8 13 12 6 5 2 3 2 2 2 1 2 2 2 2 2 1 1 4 6 5 9 8 4 3 4 4 5 5
16 16 16 16 12 10 3 3 0 8 14 2 3 4 3 10 6 2 2 2 2 2 2 2 2 2 4 2 3 2 4 6 9 4 9 5 3 5 4 3 3 5 4 4
17 18 13 4 2 5 3 5 2 18 2 2 3 4 2 3 2 2 2 2 2 2 1 1 2 2 3 3 2 4 6 10 8 7 7 9 9 4 2 3 4 3 4 4
19 8 3 3 2 1 2 3 8 8 6 2 3 1 2 0 2 2 2 1 1 2 2 2 3 3 4 1 4 6 6 4 10 12 13 11 7 6 4 4 5 5 5 5
6 1 2 2 3 2 4 3 2 3 4 3 3 3 1 1 2 1 3 2 2 3 2 2 3 2 5 3 3 5 6 6 6 6 6 7 6 4 4 6 5 6 6 5
1 1 1 2 2 3 2 2 3 3 3 3 3 2 1 2 1 2 1 2 0 2 2 2 2 2 2 5 5 5 6 7 7 7 10 10 11 9 7 6 7 7 10 8
1 2 3 3 2 2 2 2 2 3 2 1 1 1 1 1 0 2 0 2 1 2 3 1 2 2 2 4 6 6 6 8 8 9 9 9 8 9 8 6 6 10 13 15
1 2 1 1 2 3 4 4 3 2 1 2 1 1 1 1 3 2 1 1 2 2 1 3 2 2 2 4 5 7 8 9 8 9 13 13 11 9 2 2 7 14 14 15
1 2 2 3 3 4 3 1 1 1 0 1 1 1 1 1 2 1 1 2 1 2 2 4 2 2 1 3 4 5 7 7 8 8 9 9 9 7 9 4 10 14 13 15
2 1 3 4 2 1 1 0 1 2 1 0 1 1 1 1 1 2 1 2 3 4 3 2 2 3 1 3 4 5 6 6 7 9 8 9 11 7 3 1 5 9 13 15
1 2 2 3 1 1 1 1 1 0 1 0 1 1 2 3 2 3 5 3 5 3 2 2 2 2 1 1 4 4 6 7 9 11 11 11 11 9 5 1 4 7 11 13
1 3 2 2 2 3 2 1 1 1 1 2 2 4 4 1 3 3 3 3 2 3 2 2 3 2 1 2 4 5 7 9 10 11 12 12 14 8 2 1 3 6 9 12
Wind_Direction
350 354 357 360 360 354 3 22 43 327 330 50 31 10 345 325 334 316 59 75 90 106 104 98 116 181 122 165 132 136 72 118 144 186 9 239 166 167 130 123 235 68 138 271
353 355 358 1 2 0 328 39 275 46 15 40 353 345 275 211 303 313 92 103 93 138 123 112 87 184 184 182 142 165 175 27 67 13 354 357 177 186 153 105 83 208 142 259
356 355 359 1 2 4 331 48 5 326 30 102 357 2 4 24 352 52 59 98 93 92 74 59 146 119 356 156 169 146 90 121 152 188 202 134 188 200 180 133 138 213 232 285
357 356 0 2 4 12 13 26 41 355 322 345 351 0 335 22 17 17 38 46 111 116 109 91 102 109 102 56 125 89 107 127 109 255 240 185 210 213 185 188 201 200 203 269
359 356 2 4 6 21 67 54 25 337 290 296 325 352 354 34 351 35 10 77 24 37 104 194 174 136 127 166 73 94 26 128 60 308 314 208 250 231 213 210 226 254 263 275
357 357 1 7 12 23 45 359 337 81 295 333 5 293 315 39 125 45 64 152 121 76 54 3 99 156 141 172 144 119 120 131 110 288 342 319 289 221 193 191 204 222 239 245
350 351 359 7 13 19 29 15 308 325 278 325 329 330 319 319 110 141 21 37 108 152 243 118 45 58 78 81 75 127 136 122 98 266 350 266 247 146 187 192 226 210 249 263
341 345 349 360 7 13 19 18 7 338 282 265 297 359 318 32 24 84 95 39 134 119 77 83 72 25 70 159 163 142 145 133 116 271 227 273 244 270 163 183 283 214 221 253
337 333 338 345 356 4 10 42 17 334 314 255 335 288 295 212 306 353 79 24 46 76 83 97 173 181 185 182 154 89 92 94 115 214 250 262 277 106 109 110 303 289 189 258
330 325 327 329 339 349 356 329 349 305 268 276 330 236 239 179 133 160 202 178 69 42 95 125 163 216 157 173 175 163 152 181 218 234 263 281 253 239 160 97 252 210 252 261
323 321 318 314 319 327 336 331 355 4 285 285 254 282 305 338 125 156 215 58 356 60 130 159 205 172 227 158 179 170 184 176 184 187 211 253 168 97 186 220 286 280 269 253
311 316 313 311 310 298 306 283 316 309 235 268 276 271 271 254 255 13 156 217 159 174 110 202 143 164 112 173 227 91 197 190 180 197 214 246 184 250 245 178 223 262 260 266
302 312 305 299 298 300 294 265 283 306 271 280 229 227 261 252 234 241 228 271 144 161 178 146 133 203 137 192 239 204 247 179 218 163 271 235 262 278 209 184 233 265 252 220
315 309 307 303 292 286 275 266 269 228 281 277 285 324 271 270 220 209 215 236 112 100 74 114 186 236 160 221 237 202 215 8 206 264 297 301 272 235 277 276 230 266 23 192
310 313 303 297 294 293 287 262 250 242 193 309 297 312 272 234 192 184 203 164 120 117 161 168 213 169 154 218 105 241 194 208 173 241 244 211 270 309 267 249 243 218 180 170
309 312 305 304 299 302 241 318 236 225 217 258 290 307 214 154 173 154 145 158 128 131 219 175 218 221 128 243 237 260 152 287 298 280 299 250 258 272 228 223 200 182 192 192
312 313 307 301 298 209 179 200 111 177 170 237 265 277 142 132 120 106 114 136 132 160 222 170 198 204 168 233 239 73 10 343 323 360 342 297 242 271 206 171 141 134 121 156
317 310 301 291 116 162 220 222 347 165 173 235 262 265 102 152 125 130 118 144 148 178 177 141 186 122 221 249 67 357 353 330 311 344 324 279 288 283 135 105 133 135 157 147
318 313 220 166 229 151 229 151 192 224 221 278 261 295 109 247 87 104 87 105 149 161 213 213 158 176 220 143 314 328 338 302 291 306 305 298 261 255 211 168 172 178 189 171
322 157 198 214 189 227 203 172 205 202 190 220 261 285 92 170 143 127 135 173 218 199 198 127 218 217 118 76 325 304 305 303 309 317 323 338 320 262 241 226 208 200 185 173
48 14 261 313 266 205 210 216 219 199 240 204 246 285 63 15 139 115 126 227 131 184 187 228 218 230 156 3 324 314 319 307 297 285 280 276 263 259 265 250 216 195 184 182
322 285 290 285 239 222 250 233 211 216 246 213 285 299 18 113 188 144 155 134 97 222 141 210 238 122 39 340 319 323 323 319 327 328 317 305 289 255 240 232 201 183 182 169
238 223 238 214 192 217 210 209 212 195 331 346 356 318 355 21 35 66 64 93 219 102 209 235 192 126 28 340 323 325 334 335 340 346 342 341 344 4 337 172 157 151 147 158
238 214 208 205 230 232 208 230 340 45 44 2 9 44 84 15 62 138 164 228 110 244 237 233 148 160 347 351 337 342 334 332 331 341 348 349 352 2 24 65 149 145 148 158
217 199 226 221 245 269 276 77 304 330 324 331 55 16 58 328 147 217 165 206 241 224 229 164 168 184 218 358 346 339 341 342 343 345 349 348 352 0 10 104 162 170 160 161
113 246 274 248 322 293 277 180 188 274 323 332 68 235 187 230 189 184 213 195 223 236 165 167 138 173 185 324 342 332 335 341 340 344 345 343 350 344 335 180 193 198 190 183
221 262 232 210 272 234 268 335 89 7 277 225 186 211 199 100 201 221 202 219 216 168 146 144 176 177 296 328 336 349 353 352 352 345 347 343 347 347 359 272 233 212 209 214